◎2003 UB313    (From YC 2483)



深宇宙の小惑星  2003 UB313

  パロマ−の1.2-m オースチン・シュミットを使用して,遠方の小惑星を捜索し

ていたブラウンら(M. E. Brown et al.)のNEAT観測チームは,2003年10月にく

じら座を撮影した CCDフレーム上の次の位置に18等級の動きの遅い小惑星状天体

を発見した.この天体は,同所で同年9月と10月上旬に撮影されたフレーム上に

も見つかった.天体は,今年1月になって,セロトロロの1.3-m反射でラビノビッ

チ(D. Rabinowitz et al.)らによって捕らえられ,その存在が確認された(IAUC

8577).



   2003 UT             α     (2000)     δ             Mag.

   Oct. 21.26747   01h 36m 13s.82   -06゚ 07' 15".3      18.8



  計算された連結軌道から,1954年,1982年(観測光度;19.3等),1989年(18.4

等),1990年(19.3等),1993年,1994年,1995年(18.1等),1997年(18.6等),

2000年,2001年,2002年,2003年,2005年と13回の衝での観測が確認された.

  OAA小惑星課では,1954年から2005年まで13回の衝で行なわれた110個の観測か

ら次の軌道を計算した(http://www.spaceguard.or.jp/ja/mpnews/0004.html & 

0009.html).

           。

   Mo= 197.4982                Epoch = 2005 Aug. 18.0 TT

   ω = 151.3377                   e =   0.442198          H = -1.1

   Ω =  35.8747    (2000.0)       a =  67.65826 AU        G =  0.15

   i =  44.1774                   n゚=   0.001771018

   q =  37.73990 AU               P = 556.5 年



  仮に天文年鑑 2005(p.237〜)と同じように表面の反射率(アルベド)を0.15

として,その直径を計算すると5680-Km,アルベドを冥王星と同じ0.30とすると

4010-Kmとなる.これは,冥王星のそれ(直径2390-Km)より大きいことになる.

ただ,絶対等級Hは,冥王星が-1.0等,2003 UB313が-1.1等とあまり変わらない.

おそらく,冥王星とほぼ同じ大きさの天体で,直径を推定する式に少し誤差があ

るのだろう.なお,この小惑星は,現在,ほぼ,その遠日点近くを運行している.

もっとも近い近日点通過は2256年頃で,小惑星は,その頃,14等級まで明るくな

るだろう.



2005/2006    α  (2000) δ      △      r     日々運動   Elong.  Phase   V  

  0h TT     h  m       。  ,        AU      AU    ,  PA 。     。      。      等

Aug. 18   01 39.16  -05 22.9   96.352  96.905   0.4/237   122.9    0.5   18.8

Sept. 7   01 38.72  -05 27.3   96.116  96.903   0.5/244   141.2    0.4   18.8

     27   01 38.10  -05 31.8   95.970  96.900   0.6/250   157.9    0.2   18.8

Oct. 17   01 37.37  -05 35.8   95.934  96.897   0.6/255   165.0    0.2   18.8

Nov.  6   01 36.64  -05 38.7   96.013  96.894   0.5/262   152.7    0.3   18.8

     26   01 35.99  -05 40.1   96.198  96.892   0.4/274   134.4    0.4   18.8

Dec. 16   01 35.50  -05 39.6   96.469  96.889   0.2/302   115.0    0.5   18.8

Jan.  5   01 35.25  -05 37.3   96.790  96.886   0.2/  2    95.3    0.6   18.8

     25   01 35.26  -05 33.2   97.123  96.883   0.3/ 37    75.6    0.6   18.8

 

2003 UB313 

Epoch 2005 Aug. 18.0 TT = JDT 2453600.5                 MPC

M 197.49822              (2000.0)            P               Q

n   0.00177102     Peri.  151.33770     -0.91259390     -0.01987664

a  67.6582556      Node    35.87473     -0.34899622     -0.48249599

e   0.4421981      Incl.   44.17743     +0.21301177     -0.87567262

P 556.52           H   -1.13          G   0.15           U   3

Residuals in seconds of arc 

540903 261  0.2+  0.3+    020824 644  0.3-  0.2+    031021 644  0.0   0.3+  

540903 261  0.1+  0.4-    020824 644  0.1+  0.2+    031021 644  0.1+  0.2+  

820919 260  0.1+  0.1+    020824 644  0.2-  0.2+    031021 644  0.2+  0.1+  

820919 413  0.1-  0.2-    020825 644  0.0   0.4+    050108 807  0.3+  0.1+  

890929 260  0.1-  0.2-    020825 644  0.1-  0.2+    050109 807  0.2+  0.1+  

890929 413  0.0   0.1-    020825 644  0.2-  0.1+    050110 807  0.3+  0.1+  

901108 413  0.1+  0.0     020908 608  0.4-  0.1-    050730 I05  0.8-  0.1-  

931121 413  0.5-  0.2+    020909 608  0.5-  0.1+    050730 I05  0.0   0.3-  

941204 260  0.1+  0.1-    020909 608  0.3-  0.5+    050730 I05  0.5-  0.0   

941204 413  0.1-  0.3-    020911 608  0.3+  0.1-    050730 I05  0.2-  0.4+  

950819 413  0.0   0.2+    020911 608  0.3-  0.5+    050730 I05  0.2-  0.5+  

951015 413  0.0   0.1+    020911 608  0.3-  0.4+    050730 I05  0.6+  0.0   

971123 260  0.2-  0.1-    020915 608  0.3-  0.3+    050731 J87  0.0   0.7+  

971123 413  0.2-  0.1-    020919 644  0.2+  0.2+    050731 204  0.3+  0.3-  

001223 644  0.8+  0.9-    020919 644  0.1+  0.1+    050731 J87  0.1-  0.5-  

010820 608  0.1+  0.2+    020919 644  0.1+  0.0     050801 130  0.2+  1.2-  

010820 608  0.0   0.9+    021002 608  0.4+  0.0     050801 I77  0.7-  0.2+  

010820 608  0.2+  0.2+    021002 608  0.3+  0.0     050801 I77  0.1+  0.7-  

010911 644  0.0   0.2-    021002 608  0.2+  0.3-    050802 I77  0.6+  0.1-  

010911 644  0.1+  0.0     021016 644  0.0   0.3+    050802 I77  0.4-  0.5-  

010921 644  0.1-  0.2-    021016 644  0.0   0.4+    050804 130  0.3+  0.2-  

010921 644  0.2-  0.1-    021016 644  0.2-  0.4+    050804 J95  0.2+  0.4-  

010921 644  0.1+  0.2+    021028 644  0.1-  0.4+    050804 J95  0.4+  0.5-  

011015 644  0.2-  0.0     021028 644  0.2-  0.1+    050804 I77  0.1+  0.0   

011015 644  0.3-  0.1+    021104 608  0.0   0.7-    050805 151  0.4-  0.3+  

011015 644  0.2-  0.1+    021104 608  0.1-  0.2-    050805 620  0.2-  0.1+  

011023 644  0.1+  0.1+    021104 608  0.5-  0.1-    050806 213  0.3-  0.7+  

011023 644  0.0   0.1+    021106 644  0.3-  0.5-    050806 204  0.3+  0.1-  

011023 644  0.1+  0.2+    021121 644  0.0   0.3-    050809 204  0.2+  0.1-  

011121 608  0.2+  0.0     021121 644  0.3-  0.3+    050810 151  0.1-  0.4+  

011121 608  0.6+  0.1+    021121 644  1.3+  0.1-    050812 850  0.5-  0.6-  

011211 608  0.3-  0.4-    021207 644  0.0   0.1+    050812 850  0.9+  0.1-  

011228 644  0.0   0.5+    021207 644  0.0   0.3+    050812 850  1.1+  0.1-  

011229 608  0.5+  0.3-    021207 644  0.0   0.1+    050812 850  0.0   0.7-  

011229 608  0.3+  0.5-    030908 644  0.5-  0.2-    050812 850  2.0+  0.1-  

011229 608  0.1-  0.6-    031004 644  0.4-  0.1+    050812 850  0.8-  0.2-  

011229 608  0.1-  0.2-    031005 644  0.7-  0.2-                            

 



NAKANO

         **** Don't distribute anyone except personal use only ****

                (C) Copyright 2005 OAA/ComputingSection

write mail from CFAD0::NAKANO on 2005-08-19 23:33:33(JST).



戻ります。